Time,TemperatureF,DewpointF,PressureIn,WindDirection,WindDirectionDegrees,WindSpeedMPH,WindSpeedGustMPH,Humidity,HourlyPrecipIn,Conditions,Clouds,dailyrainin,SoftwareType,DateUTC
2013-05-18 00:00:00,49.3,44.7,29.79,North,0,0.0,0.7,84,0.00,,,0.00,pywws,2013-05-17 23:00:00,
2013-05-18 00:05:00,48.9,44.3,29.79,North,0,0.0,0.0,84,0.00,,,0.00,pywws,2013-05-17 23:05:00,
2013-05-18 00:11:00,48.7,44.1,29.79,NW,315,0.0,0.7,84,0.00,,,0.00,pywws,2013-05-17 23:11:00,
2013-05-18 00:17:00,48.6,43.9,29.79,South,180,0.0,0.7,84,0.00,,,0.00,pywws,2013-05-17 23:17:00,
2013-05-18 00:22:00,48.4,44.1,29.78,North,0,0.0,1.6,85,0.00,,,0.00,pywws,2013-05-17 23:22:00,
2013-05-18 00:28:00,48.4,44.1,29.79,NW,315,0.0,0.7,85,0.00,,,0.00,pywws,2013-05-17 23:28:00,
2013-05-18 00:33:00,48.2,43.9,29.78,West,270,0.0,1.6,85,0.00,,,0.00,pywws,2013-05-17 23:33:00,
2013-05-18 00:39:00,48.0,43.7,29.78,North,0,0.0,0.7,85,0.00,,,0.00,pywws,2013-05-17 23:39:00,
2013-05-18 00:44:00,47.7,43.4,29.78,NW,315,0.0,0.0,85,0.00,,,0.00,pywws,2013-05-17 23:44:00,
2013-05-18 00:50:00,47.3,43.0,29.78,NW,315,0.0,0.0,85,0.00,,,0.00,pywws,2013-05-17 23:50:00,
2013-05-18 00:56:00,46.9,42.7,29.78,North,0,0.0,0.0,85,0.00,,,0.00,pywws,2013-05-17 23:56:00,
2013-05-18 01:01:00,46.6,42.6,29.78,NW,315,0.0,0.7,86,0.00,,,0.00,pywws,2013-05-18 00:01:00,
2013-05-18 01:07:00,46.2,42.3,29.78,NW,315,0.0,0.0,86,0.00,,,0.00,pywws,2013-05-18 00:07:00,
2013-05-18 01:12:00,45.7,42.0,29.78,NW,315,0.0,0.0,87,0.00,,,0.00,pywws,2013-05-18 00:12:00,
2013-05-18 01:19:00,45.1,41.5,29.78,NW,315,0.0,0.0,87,0.00,,,0.00,pywws,2013-05-18 00:19:00,
2013-05-18 01:24:00,44.8,41.4,29.78,NW,315,0.0,0.0,88,0.00,,,0.00,pywws,2013-05-18 00:24:00,
2013-05-18 01:30:00,44.6,41.6,29.78,NE,45,0.0,0.0,89,0.00,,,0.00,pywws,2013-05-18 00:30:00,
2013-05-18 01:36:00,44.6,41.9,29.78,North,0,0.0,0.0,90,0.00,,,0.00,pywws,2013-05-18 00:36:00,
2013-05-18 01:41:00,44.6,41.9,29.77,North,0,0.0,0.0,90,0.00,,,0.00,pywws,2013-05-18 00:41:00,
2013-05-18 01:47:00,44.8,42.0,29.77,SW,225,0.0,0.0,90,0.00,,,0.00,pywws,2013-05-18 00:47:00,
2013-05-18 01:52:00,45.0,42.5,29.77,South,180,0.0,0.7,91,0.00,,,0.00,pywws,2013-05-18 00:52:00,
2013-05-18 01:58:00,45.1,42.7,29.77,NE,45,0.0,0.0,91,0.00,,,0.00,pywws,2013-05-18 00:58:00,
2013-05-18 02:04:00,45.3,42.8,29.78,East,90,0.0,0.0,91,0.00,,,0.00,pywws,2013-05-18 01:04:00,
2013-05-18 02:10:00,45.5,43.3,29.78,SE,135,0.0,0.0,92,0.00,,,0.00,pywws,2013-05-18 01:10:00,
2013-05-18 02:16:00,45.5,43.0,29.77,North,0,0.0,0.0,91,0.00,,,0.00,pywws,2013-05-18 01:16:00,
2013-05-18 02:21:00,45.3,42.8,29.77,SE,135,0.0,0.0,91,0.00,,,0.00,pywws,2013-05-18 01:21:00,
2013-05-18 02:27:00,45.5,43.3,29.77,South,180,0.0,0.0,92,0.00,,,0.00,pywws,2013-05-18 01:27:00,
2013-05-18 02:32:00,45.7,43.5,29.77,South,180,0.0,0.0,92,0.00,,,0.00,pywws,2013-05-18 01:32:00,
2013-05-18 02:38:00,45.7,43.5,29.77,South,180,0.0,0.0,92,0.00,,,0.00,pywws,2013-05-18 01:38:00,
2013-05-18 02:44:00,45.9,43.7,29.77,South,180,0.0,0.0,92,0.00,,,0.00,pywws,2013-05-18 01:44:00,
2013-05-18 02:51:00,45.9,43.7,29.77,South,180,0.0,0.0,92,0.00,,,0.00,pywws,2013-05-18 01:51:00,
2013-05-18 02:56:00,46.0,43.8,29.77,South,180,0.0,0.0,92,0.00,,,0.00,pywws,2013-05-18 01:56:00,
2013-05-18 03:02:00,46.0,43.8,29.77,South,180,0.0,0.0,92,0.00,,,0.00,pywws,2013-05-18 02:02:00,
2013-05-18 03:08:00,46.2,44.0,29.77,South,180,0.0,0.0,92,0.00,,,0.00,pywws,2013-05-18 02:08:00,
2013-05-18 03:13:00,46.2,44.0,29.77,South,180,0.0,0.0,92,0.00,,,0.00,pywws,2013-05-18 02:13:00,
2013-05-18 03:19:00,46.4,44.5,29.77,NE,45,0.0,0.0,93,0.00,,,0.00,pywws,2013-05-18 02:19:00,
2013-05-18 03:24:00,46.6,44.7,29.76,West,270,0.0,0.7,93,0.00,,,0.00,pywws,2013-05-18 02:24:00,
2013-05-18 03:30:00,46.8,44.8,29.76,NW,315,0.0,1.6,93,0.00,,,0.00,pywws,2013-05-18 02:30:00,
2013-05-18 03:36:00,46.9,45.0,29.76,West,270,0.0,0.0,93,0.00,,,0.00,pywws,2013-05-18 02:36:00,
2013-05-18 03:41:00,47.1,45.2,29.76,NW,315,0.0,0.0,93,0.00,,,0.00,pywws,2013-05-18 02:41:00,
2013-05-18 03:47:00,47.1,44.9,29.76,South,180,0.0,0.0,92,0.00,,,0.00,pywws,2013-05-18 02:47:00,
2013-05-18 03:52:00,47.3,45.1,29.76,West,270,0.0,0.7,92,0.00,,,0.00,pywws,2013-05-18 02:52:00,
2013-05-18 03:59:00,47.3,45.1,29.76,SW,225,0.0,0.0,92,0.00,,,0.00,pywws,2013-05-18 02:59:00,
2013-05-18 04:04:00,47.3,45.1,29.76,North,0,0.0,0.0,92,0.00,,,0.00,pywws,2013-05-18 03:04:00,
2013-05-18 04:10:00,47.3,45.1,29.76,North,0,0.0,0.7,92,0.00,,,0.00,pywws,2013-05-18 03:10:00,
2013-05-18 04:16:00,47.3,45.1,29.76,South,180,0.0,0.0,92,0.00,,,0.00,pywws,2013-05-18 03:16:00,
2013-05-18 04:21:00,47.3,45.1,29.77,South,180,0.0,0.0,92,0.00,,,0.00,pywws,2013-05-18 03:21:00,
2013-05-18 04:27:00,47.1,44.9,29.76,South,180,0.0,0.0,92,0.00,,,0.00,pywws,2013-05-18 03:27:00,
2013-05-18 04:32:00,47.1,44.9,29.76,West,270,0.0,0.7,92,0.00,,,0.00,pywws,2013-05-18 03:32:00,
2013-05-18 04:39:00,47.3,45.1,29.76,SE,135,0.0,0.0,92,0.00,,,0.00,pywws,2013-05-18 03:39:00,
2013-05-18 04:44:00,47.1,44.9,29.76,SE,135,0.0,0.0,92,0.00,,,0.00,pywws,2013-05-18 03:44:00,
2013-05-18 04:49:00,47.3,45.1,29.76,SE,135,0.0,0.0,92,0.00,,,0.00,pywws,2013-05-18 03:49:00,
2013-05-18 04:56:00,47.1,44.9,29.76,SE,135,0.0,0.0,92,0.00,,,0.00,pywws,2013-05-18 03:56:00,
2013-05-18 05:01:00,47.1,44.9,29.77,NW,315,0.0,0.0,92,0.00,,,0.00,pywws,2013-05-18 04:01:00,
2013-05-18 05:02:00,47.1,44.9,29.76,NW,315,0.0,0.0,92,0.00,,,0.00,pywws,2013-05-18 04:02:00,
2013-05-18 05:04:00,47.1,44.9,29.76,NW,315,0.0,0.0,92,0.00,,,0.00,pywws,2013-05-18 04:04:00,
2013-05-18 05:07:00,47.1,44.9,29.76,West,270,0.0,0.7,92,0.00,,,0.00,pywws,2013-05-18 04:07:00,
2013-05-18 05:12:00,47.3,45.1,29.76,SW,225,0.7,1.6,92,0.00,,,0.00,pywws,2013-05-18 04:12:00,
2013-05-18 05:15:00,47.3,45.1,29.76,SW,225,0.0,1.6,92,0.00,,,0.00,pywws,2013-05-18 04:15:00,
2013-05-18 05:20:00,47.5,45.3,29.77,SW,225,0.0,1.6,92,0.00,,,0.00,pywws,2013-05-18 04:20:00,
2013-05-18 05:26:00,47.7,45.5,29.76,West,270,0.0,0.7,92,0.00,,,0.00,pywws,2013-05-18 04:26:00,
2013-05-18 05:32:00,47.8,45.6,29.77,West,270,0.7,2.2,92,0.00,,,0.00,pywws,2013-05-18 04:32:00,
2013-05-18 05:37:00,47.8,45.6,29.77,SW,225,0.7,2.2,92,0.00,,,0.00,pywws,2013-05-18 04:37:00,
2013-05-18 05:43:00,47.8,45.3,29.77,West,270,1.6,3.1,91,0.00,,,0.00,pywws,2013-05-18 04:43:00,
2013-05-18 05:48:00,47.8,45.3,29.77,WNW,293,0.0,1.6,91,0.00,,,0.00,pywws,2013-05-18 04:48:00,
2013-05-18 05:54:00,47.8,45.3,29.76,South,180,0.0,2.2,91,0.00,,,0.00,pywws,2013-05-18 04:54:00,
2013-05-18 06:00:00,47.8,45.3,29.77,SW,225,0.0,0.7,91,0.00,,,0.00,pywws,2013-05-18 05:00:00,
2013-05-18 06:05:00,47.8,45.3,29.77,SW,225,0.7,2.2,91,0.00,,,0.00,pywws,2013-05-18 05:05:00,
2013-05-18 06:11:00,48.0,45.5,29.77,West,270,0.0,3.1,91,0.00,,,0.00,pywws,2013-05-18 05:11:00,
2013-05-18 06:16:00,48.0,45.2,29.77,South,180,0.0,0.0,90,0.00,,,0.00,pywws,2013-05-18 05:16:00,
2013-05-18 06:22:00,48.2,45.4,29.77,SW,225,0.7,2.2,90,0.00,,,0.00,pywws,2013-05-18 05:22:00,
2013-05-18 06:28:00,48.4,45.6,29.77,West,270,0.0,0.7,90,0.00,,,0.00,pywws,2013-05-18 05:28:00,
2013-05-18 06:33:00,48.4,45.3,29.77,NW,315,0.7,2.2,89,0.00,,,0.00,pywws,2013-05-18 05:33:00,
2013-05-18 06:39:00,48.6,45.5,29.77,South,180,0.0,1.6,89,0.00,,,0.00,pywws,2013-05-18 05:39:00,
2013-05-18 06:44:00,48.7,45.3,29.77,SW,225,0.0,1.6,88,0.00,,,0.00,pywws,2013-05-18 05:44:00,
2013-05-18 06:50:00,48.9,45.5,29.77,NNW,338,0.7,3.1,88,0.00,,,0.00,pywws,2013-05-18 05:50:00,
2013-05-18 06:56:00,49.1,45.7,29.77,WNW,293,0.0,1.6,88,0.00,,,0.00,pywws,2013-05-18 05:56:00,
2013-05-18 07:01:00,49.5,45.8,29.77,SE,135,0.7,3.1,87,0.00,,,0.00,pywws,2013-05-18 06:01:00,
2013-05-18 07:07:00,49.8,46.1,29.77,West,270,0.7,1.6,87,0.00,,,0.00,pywws,2013-05-18 06:07:00,
2013-05-18 07:12:00,50.2,46.5,29.76,SW,225,1.6,3.8,87,0.00,,,0.00,pywws,2013-05-18 06:12:00,
2013-05-18 07:18:00,50.5,46.5,29.77,West,270,0.7,2.2,86,0.00,,,0.00,pywws,2013-05-18 06:18:00,
2013-05-18 07:24:00,50.7,46.4,29.77,SW,225,1.6,3.1,85,0.00,,,0.00,pywws,2013-05-18 06:24:00,
2013-05-18 07:29:00,51.1,46.7,29.77,South,180,1.6,3.8,85,0.00,,,0.00,pywws,2013-05-18 06:29:00,
2013-05-18 07:35:00,51.4,46.8,29.76,NE,45,0.7,3.1,84,0.00,,,0.00,pywws,2013-05-18 06:35:00,
2013-05-18 07:40:00,51.8,46.8,29.77,West,270,1.6,3.8,83,0.00,,,0.00,pywws,2013-05-18 06:40:00,
2013-05-18 07:46:00,52.0,46.7,29.77,South,180,0.0,2.2,82,0.00,,,0.00,pywws,2013-05-18 06:46:00,
2013-05-18 07:52:00,52.2,46.5,29.77,SW,225,0.7,3.8,81,0.00,,,0.00,pywws,2013-05-18 06:52:00,
2013-05-18 07:57:00,52.5,46.5,29.77,West,270,1.6,3.8,80,0.00,,,0.00,pywws,2013-05-18 06:57:00,
2013-05-18 08:03:00,52.9,46.5,29.76,West,270,2.2,3.8,79,0.00,,,0.00,pywws,2013-05-18 07:03:00,
2013-05-18 08:08:00,53.4,46.4,29.76,West,270,2.2,3.8,77,0.00,,,0.00,pywws,2013-05-18 07:08:00,
2013-05-18 08:14:00,54.0,46.6,29.76,NW,315,1.6,3.8,76,0.00,,,0.00,pywws,2013-05-18 07:14:00,
2013-05-18 08:20:00,54.9,47.1,29.76,NW,315,0.7,3.1,75,0.00,,,0.00,pywws,2013-05-18 07:20:00,
2013-05-18 08:25:00,56.1,46.8,29.76,North,0,1.6,3.1,71,0.00,,,0.00,pywws,2013-05-18 07:25:00,
2013-05-18 08:31:00,56.5,45.7,29.76,South,180,1.6,3.8,67,0.00,,,0.00,pywws,2013-05-18 07:31:00,
2013-05-18 08:36:00,56.7,45.8,29.76,SE,135,2.2,5.4,67,0.00,,,0.00,pywws,2013-05-18 07:36:00,
2013-05-18 08:42:00,57.2,45.9,29.75,North,0,0.7,3.1,66,0.00,,,0.00,pywws,2013-05-18 07:42:00,
2013-05-18 08:48:00,57.4,45.3,29.75,West,270,3.1,5.4,64,0.00,,,0.00,pywws,2013-05-18 07:48:00,
2013-05-18 08:53:00,57.2,45.5,29.75,SSE,158,2.2,3.8,65,0.00,,,0.00,pywws,2013-05-18 07:53:00,
2013-05-18 08:59:00,57.9,45.8,29.75,NW,315,3.1,5.4,64,0.00,,,0.00,pywws,2013-05-18 07:59:00,
2013-05-18 09:04:00,58.8,46.3,29.75,SE,135,1.6,3.8,63,0.00,,,0.00,pywws,2013-05-18 08:04:00,
2013-05-18 09:10:00,59.2,45.7,29.75,NW,315,2.2,7.6,61,0.00,,,0.00,pywws,2013-05-18 08:10:00,
2013-05-18 09:16:00,59.5,45.6,29.75,West,270,2.2,5.4,60,0.00,,,0.00,pywws,2013-05-18 08:16:00,
2013-05-18 09:21:00,60.1,45.3,29.75,NW,315,3.1,9.2,58,0.00,,,0.00,pywws,2013-05-18 08:21:00,
2013-05-18 09:27:00,59.7,44.0,29.75,West,270,3.1,5.4,56,0.00,,,0.00,pywws,2013-05-18 08:27:00,
2013-05-18 09:32:00,59.7,44.9,29.75,NW,315,3.1,9.8,58,0.00,,,0.00,pywws,2013-05-18 08:32:00,
2013-05-18 09:38:00,59.4,44.6,29.75,West,270,2.2,7.6,58,0.00,,,0.00,pywws,2013-05-18 08:38:00,
2013-05-18 09:44:00,58.3,44.0,29.75,West,270,3.8,7.6,59,0.00,,,0.00,pywws,2013-05-18 08:44:00,
2013-05-18 09:50:00,57.9,44.1,29.75,WNW,293,2.2,5.4,60,0.00,,,0.00,pywws,2013-05-18 08:50:00,
2013-05-18 09:55:00,60.1,44.8,29.75,North,0,3.1,5.4,57,0.00,,,0.00,pywws,2013-05-18 08:55:00,
2013-05-18 10:01:00,61.0,44.2,29.75,NW,315,2.2,6.9,54,0.00,,,0.00,pywws,2013-05-18 09:01:00,
2013-05-18 10:06:00,62.1,44.7,29.74,North,0,3.1,6.0,53,0.00,,,0.00,pywws,2013-05-18 09:06:00,
2013-05-18 10:12:00,62.1,44.2,29.75,West,270,1.6,3.8,52,0.00,,,0.00,pywws,2013-05-18 09:12:00,
2013-05-18 10:17:00,60.1,44.3,29.75,West,270,1.6,4.5,56,0.00,,,0.00,pywws,2013-05-18 09:17:00,
2013-05-18 10:23:00,59.0,44.2,29.74,East,90,3.1,5.4,58,0.00,,,0.00,pywws,2013-05-18 09:23:00,
2013-05-18 10:28:00,59.9,44.6,29.74,South,180,3.1,12.1,57,0.00,,,0.00,pywws,2013-05-18 09:28:00,
2013-05-18 10:34:00,60.3,45.4,29.74,SW,225,3.1,5.4,58,0.00,,,0.00,pywws,2013-05-18 09:34:00,
2013-05-18 10:40:00,59.7,44.0,29.74,West,270,1.6,5.4,56,0.00,,,0.00,pywws,2013-05-18 09:40:00,
2013-05-18 10:45:00,59.7,44.0,29.74,NW,315,3.1,7.6,56,0.00,,,0.00,pywws,2013-05-18 09:45:00,
2013-05-18 10:51:00,59.7,43.5,29.74,NW,315,3.1,6.0,55,0.00,,,0.00,pywws,2013-05-18 09:51:00,
2013-05-18 10:56:00,59.9,44.2,29.74,NW,315,2.2,3.8,56,0.00,,,0.00,pywws,2013-05-18 09:56:00,
2013-05-18 11:02:00,59.5,43.8,29.74,North,0,2.2,6.9,56,0.00,,,0.00,pywws,2013-05-18 10:02:00,
2013-05-18 11:08:00,60.1,44.8,29.73,SW,225,3.1,6.0,57,0.00,,,0.00,pywws,2013-05-18 10:08:00,
2013-05-18 11:13:00,60.1,45.3,29.73,South,180,0.7,2.2,58,0.00,,,0.00,pywws,2013-05-18 10:13:00,
2013-05-18 11:19:00,60.8,45.5,29.73,NW,315,2.2,7.6,57,0.00,,,0.00,pywws,2013-05-18 10:19:00,
2013-05-18 11:24:00,61.3,44.1,29.73,East,90,2.2,6.9,53,0.00,,,0.00,pywws,2013-05-18 10:24:00,
2013-05-18 11:30:00,61.0,43.7,29.73,South,180,1.6,3.8,53,0.00,,,0.00,pywws,2013-05-18 10:30:00,
2013-05-18 11:36:00,60.6,43.9,29.73,North,0,2.2,3.8,54,0.00,,,0.00,pywws,2013-05-18 10:36:00,
2013-05-18 11:41:00,60.4,43.7,29.73,NW,315,3.8,6.9,54,0.00,,,0.00,pywws,2013-05-18 10:41:00,
2013-05-18 11:47:00,60.4,44.7,29.73,NW,315,1.6,3.1,56,0.00,,,0.00,pywws,2013-05-18 10:47:00,
2013-05-18 11:52:00,60.4,44.2,29.73,NE,45,1.6,4.5,55,0.00,,,0.00,pywws,2013-05-18 10:52:00,
2013-05-18 11:58:00,60.6,44.4,29.73,NW,315,1.6,3.8,55,0.00,,,0.00,pywws,2013-05-18 10:58:00,
2013-05-18 12:04:00,61.0,44.7,29.73,West,270,0.7,3.1,55,0.00,,,0.00,pywws,2013-05-18 11:04:00,
2013-05-18 12:09:00,60.6,44.4,29.73,North,0,2.2,3.8,55,0.00,,,0.00,pywws,2013-05-18 11:09:00,
2013-05-18 12:15:00,60.1,44.3,29.74,West,270,1.6,6.9,56,0.00,,,0.00,pywws,2013-05-18 11:15:00,
2013-05-18 12:20:00,59.5,44.3,29.73,SE,135,2.2,5.4,57,0.00,,,0.00,pywws,2013-05-18 11:20:00,
2013-05-18 12:26:00,59.4,44.6,29.73,North,0,2.2,4.5,58,0.00,,,0.00,pywws,2013-05-18 11:26:00,
2013-05-18 12:32:00,59.2,44.4,29.73,NW,315,1.6,3.1,58,0.00,,,0.00,pywws,2013-05-18 11:32:00,
2013-05-18 12:37:00,59.5,44.7,29.73,WNW,293,3.1,5.4,58,0.00,,,0.00,pywws,2013-05-18 11:37:00,
2013-05-18 12:43:00,60.1,44.3,29.73,SW,225,3.8,6.9,56,0.00,,,0.00,pywws,2013-05-18 11:43:00,
2013-05-18 12:48:00,60.4,44.2,29.73,NW,315,2.2,6.0,55,0.00,,,0.00,pywws,2013-05-18 11:48:00,
2013-05-18 12:54:00,61.3,45.0,29.73,NW,315,1.6,4.5,55,0.00,,,0.00,pywws,2013-05-18 11:54:00,
2013-05-18 13:00:00,62.8,45.4,29.73,West,270,0.7,3.8,53,0.00,,,0.00,pywws,2013-05-18 12:00:00,
2013-05-18 13:05:00,63.5,44.5,29.73,SW,225,2.2,4.5,50,0.00,,,0.00,pywws,2013-05-18 12:05:00,
2013-05-18 13:11:00,64.4,44.8,29.73,SW,225,1.6,3.8,49,0.00,,,0.00,pywws,2013-05-18 12:11:00,
2013-05-18 13:16:00,63.9,43.8,29.73,NE,45,2.2,4.5,48,0.00,,,0.00,pywws,2013-05-18 12:16:00,
2013-05-18 13:22:00,63.3,43.8,29.74,NW,315,1.6,4.5,49,0.00,,,0.00,pywws,2013-05-18 12:22:00,
2013-05-18 13:28:00,63.5,44.0,29.74,SE,135,3.1,6.9,49,0.00,,,0.00,pywws,2013-05-18 12:28:00,
2013-05-18 13:33:00,63.1,43.7,29.74,South,180,3.1,5.4,49,0.00,,,0.00,pywws,2013-05-18 12:33:00,
2013-05-18 13:39:00,61.7,41.8,29.75,NW,315,3.8,7.6,48,0.00,,,0.00,pywws,2013-05-18 12:39:00,
2013-05-18 13:44:00,60.4,42.7,29.75,NW,315,2.2,4.5,52,0.00,,,0.00,pywws,2013-05-18 12:44:00,
2013-05-18 13:50:00,59.7,43.0,29.75,NW,315,1.6,3.8,54,0.00,,,0.00,pywws,2013-05-18 12:50:00,
2013-05-18 13:56:00,59.5,43.8,29.75,West,270,3.1,5.4,56,0.00,,,0.00,pywws,2013-05-18 12:56:00,
2013-05-18 14:01:00,60.1,44.3,29.75,NW,315,1.6,3.1,56,0.00,,,0.00,pywws,2013-05-18 13:01:00,
2013-05-18 14:07:00,61.0,44.7,29.75,North,0,1.6,3.1,55,0.00,,,0.00,pywws,2013-05-18 13:07:00,
2013-05-18 14:12:00,61.5,44.2,29.74,NW,315,0.7,1.6,53,0.00,,,0.00,pywws,2013-05-18 13:12:00,
2013-05-18 14:18:00,62.2,42.8,29.74,NW,315,3.8,8.3,49,0.00,,,0.00,pywws,2013-05-18 13:18:00,
2013-05-18 14:24:00,62.4,43.0,29.74,SW,225,1.6,4.5,49,0.00,,,0.00,pywws,2013-05-18 13:24:00,
2013-05-18 14:29:00,61.5,42.2,29.73,SW,225,3.1,6.0,49,0.00,,,0.00,pywws,2013-05-18 13:29:00,
2013-05-18 14:35:00,61.2,43.4,29.73,NW,315,3.1,6.0,52,0.00,,,0.00,pywws,2013-05-18 13:35:00,
2013-05-18 14:40:00,61.5,43.2,29.73,SE,135,2.2,4.5,51,0.00,,,0.00,pywws,2013-05-18 13:40:00,
2013-05-18 14:46:00,62.4,43.0,29.73,North,0,0.7,2.2,49,0.00,,,0.00,pywws,2013-05-18 13:46:00,
2013-05-18 14:52:00,62.2,42.8,29.73,West,270,1.6,4.5,49,0.00,,,0.00,pywws,2013-05-18 13:52:00,
2013-05-18 14:57:00,62.2,42.8,29.73,NNW,338,2.2,4.5,49,0.00,,,0.00,pywws,2013-05-18 13:57:00,
2013-05-18 15:03:00,62.6,43.2,29.73,NNW,338,0.0,2.2,49,0.00,,,0.00,pywws,2013-05-18 14:03:00,
2013-05-18 15:08:00,63.1,43.1,29.73,West,270,3.1,5.4,48,0.00,,,0.00,pywws,2013-05-18 14:08:00,
2013-05-18 15:14:00,63.5,43.5,29.73,SE,135,2.2,4.5,48,0.00,,,0.00,pywws,2013-05-18 14:14:00,
2013-05-18 15:20:00,64.0,43.4,29.72,ENE,68,1.6,3.1,47,0.00,,,0.00,pywws,2013-05-18 14:20:00,
2013-05-18 15:25:00,63.9,42.7,29.72,North,0,0.7,2.2,46,0.00,,,0.00,pywws,2013-05-18 14:25:00,
2013-05-18 15:31:00,65.1,44.4,29.71,SE,135,0.7,2.2,47,0.00,,,0.00,pywws,2013-05-18 14:31:00,
2013-05-18 15:36:00,66.9,43.1,29.72,NW,315,2.2,4.5,42,0.00,,,0.00,pywws,2013-05-18 14:36:00,
2013-05-18 15:42:00,65.8,42.1,29.72,NW,315,2.2,4.5,42,0.00,,,0.00,pywws,2013-05-18 14:42:00,
2013-05-18 15:48:00,64.9,42.5,29.71,North,0,1.6,4.5,44,0.00,,,0.00,pywws,2013-05-18 14:48:00,
2013-05-18 15:53:00,63.9,42.7,29.71,NW,315,1.6,3.8,46,0.00,,,0.00,pywws,2013-05-18 14:53:00,
2013-05-18 15:59:00,63.5,42.9,29.71,SW,225,0.7,2.2,47,0.00,,,0.00,pywws,2013-05-18 14:59:00,
2013-05-18 16:04:00,66.0,44.1,29.71,NW,315,3.1,5.4,45,0.00,,,0.00,pywws,2013-05-18 15:04:00,
2013-05-18 16:10:00,67.1,43.2,29.71,SW,225,0.0,1.6,42,0.00,,,0.00,pywws,2013-05-18 15:10:00,
2013-05-18 16:16:00,68.9,42.9,29.72,East,90,2.2,3.8,39,0.00,,,0.00,pywws,2013-05-18 15:16:00,
2013-05-18 16:21:00,67.3,42.1,29.71,NNW,338,1.6,3.1,40,0.00,,,0.00,pywws,2013-05-18 15:21:00,
2013-05-18 16:27:00,65.8,42.7,29.71,NW,315,0.7,2.2,43,0.00,,,0.00,pywws,2013-05-18 15:27:00,
2013-05-18 16:32:00,64.9,43.1,29.72,NW,315,1.6,5.4,45,0.00,,,0.00,pywws,2013-05-18 15:32:00,
2013-05-18 16:38:00,64.0,42.3,29.71,West,270,2.2,5.4,45,0.00,,,0.00,pywws,2013-05-18 15:38:00,
2013-05-18 16:44:00,63.1,43.1,29.71,SE,135,1.6,3.8,48,0.00,,,0.00,pywws,2013-05-18 15:44:00,
2013-05-18 16:49:00,62.6,43.2,29.72,SW,225,1.6,4.5,49,0.00,,,0.00,pywws,2013-05-18 15:49:00,
2013-05-18 16:55:00,62.4,43.5,29.71,West,270,2.2,6.0,50,0.00,,,0.00,pywws,2013-05-18 15:55:00,
2013-05-18 17:00:00,62.4,43.0,29.71,NW,315,2.2,6.0,49,0.00,,,0.00,pywws,2013-05-18 16:00:00,
2013-05-18 17:06:00,62.8,43.3,29.71,SW,225,0.7,2.2,49,0.00,,,0.00,pywws,2013-05-18 16:06:00,
2013-05-18 17:12:00,63.3,43.8,29.71,North,0,0.7,2.2,49,0.00,,,0.00,pywws,2013-05-18 16:12:00,
2013-05-18 17:17:00,63.3,43.8,29.71,SW,225,0.0,1.6,49,0.00,,,0.00,pywws,2013-05-18 16:17:00,
2013-05-18 17:23:00,63.5,44.0,29.71,NW,315,2.2,6.9,49,0.00,,,0.00,pywws,2013-05-18 16:23:00,
2013-05-18 17:28:00,64.9,43.1,29.71,North,0,0.7,1.6,45,0.00,,,0.00,pywws,2013-05-18 16:28:00,
2013-05-18 17:34:00,64.2,43.0,29.71,SW,225,0.0,1.6,46,0.00,,,0.00,pywws,2013-05-18 16:34:00,
2013-05-18 17:40:00,63.1,43.1,29.72,North,0,1.6,3.1,48,0.00,,,0.00,pywws,2013-05-18 16:40:00,
2013-05-18 17:45:00,61.9,43.6,29.71,SW,225,0.7,2.2,51,0.00,,,0.00,pywws,2013-05-18 16:45:00,
2013-05-18 17:51:00,61.2,43.9,29.72,NW,315,0.7,2.2,53,0.00,,,0.00,pywws,2013-05-18 16:51:00,
2013-05-18 17:57:00,61.0,44.2,29.72,SE,135,0.7,2.2,54,0.00,,,0.00,pywws,2013-05-18 16:57:00,
2013-05-18 18:02:00,61.0,44.7,29.72,NE,45,0.0,1.6,55,0.00,,,0.00,pywws,2013-05-18 17:02:00,
2013-05-18 18:08:00,60.6,44.4,29.72,NE,45,0.0,0.7,55,0.00,,,0.00,pywws,2013-05-18 17:08:00,
2013-05-18 18:13:00,60.4,44.7,29.72,South,180,0.7,2.2,56,0.00,,,0.00,pywws,2013-05-18 17:13:00,
2013-05-18 18:19:00,60.4,44.7,29.72,North,0,0.0,1.6,56,0.00,,,0.00,pywws,2013-05-18 17:19:00,
2013-05-18 18:25:00,60.4,44.2,29.72,East,90,0.7,1.6,55,0.00,,,0.00,pywws,2013-05-18 17:25:00,
2013-05-18 18:30:00,60.4,44.7,29.73,East,90,0.0,2.2,56,0.00,,,0.00,pywws,2013-05-18 17:30:00,
2013-05-18 18:36:00,60.3,44.0,29.74,SE,135,0.0,1.6,55,0.00,,,0.00,pywws,2013-05-18 17:36:00,
2013-05-18 18:41:00,60.1,44.3,29.73,NE,45,0.0,1.6,56,0.00,,,0.00,pywws,2013-05-18 17:41:00,
2013-05-18 18:47:00,60.3,44.5,29.73,NW,315,0.7,2.2,56,0.00,,,0.00,pywws,2013-05-18 17:47:00,
2013-05-18 18:52:00,60.6,44.8,29.72,NE,45,0.7,1.6,56,0.00,,,0.00,pywws,2013-05-18 17:52:00,
2013-05-18 18:58:00,60.8,44.5,29.72,North,0,0.0,1.6,55,0.00,,,0.00,pywws,2013-05-18 17:58:00,
2013-05-18 19:04:00,61.0,44.7,29.72,East,90,0.0,0.7,55,0.00,,,0.00,pywws,2013-05-18 18:04:00,
2013-05-18 19:09:00,61.0,44.2,29.72,West,270,0.0,0.0,54,0.00,,,0.00,pywws,2013-05-18 18:09:00,
2013-05-18 19:15:00,60.8,44.0,29.72,North,0,0.0,0.0,54,0.00,,,0.00,pywws,2013-05-18 18:15:00,
2013-05-18 19:20:00,60.4,44.2,29.73,SE,135,0.0,0.7,55,0.00,,,0.00,pywws,2013-05-18 18:20:00,
2013-05-18 19:27:00,60.3,44.0,29.73,NE,45,0.0,0.0,55,0.00,,,0.00,pywws,2013-05-18 18:27:00,
2013-05-18 19:32:00,60.3,44.5,29.74,NE,45,0.0,0.0,56,0.00,,,0.00,pywws,2013-05-18 18:32:00,
2013-05-18 19:38:00,60.4,44.7,29.73,North,0,0.0,1.6,56,0.00,,,0.00,pywws,2013-05-18 18:38:00,
2013-05-18 19:44:00,60.3,44.0,29.73,NE,45,0.0,0.7,55,0.00,,,0.00,pywws,2013-05-18 18:44:00,
2013-05-18 19:49:00,60.1,44.3,29.73,East,90,0.0,0.7,56,0.00,,,0.00,pywws,2013-05-18 18:49:00,
2013-05-18 19:55:00,59.5,44.3,29.73,SE,135,0.0,0.0,57,0.00,,,0.00,pywws,2013-05-18 18:55:00,
2013-05-18 20:00:00,58.8,44.1,29.73,SE,135,0.0,0.7,58,0.00,,,0.00,pywws,2013-05-18 19:00:00,
2013-05-18 20:06:00,57.9,43.7,29.74,SE,135,0.0,0.7,59,0.00,,,0.00,pywws,2013-05-18 19:06:00,
2013-05-18 20:12:00,57.2,43.4,29.75,South,180,0.0,0.7,60,0.00,,,0.00,pywws,2013-05-18 19:12:00,
2013-05-18 20:17:00,56.5,43.6,29.74,SE,135,0.0,0.7,62,0.00,,,0.00,pywws,2013-05-18 19:17:00,
2013-05-18 20:22:00,56.1,43.7,29.75,SE,135,0.0,2.2,63,0.00,,,0.00,pywws,2013-05-18 19:22:00,
2013-05-18 20:28:00,55.9,44.3,29.75,South,180,0.0,1.6,65,0.00,,,0.00,pywws,2013-05-18 19:28:00,
2013-05-18 20:33:00,55.9,44.7,29.75,SE,135,0.0,0.0,66,0.00,,,0.00,pywws,2013-05-18 19:33:00,
2013-05-18 20:39:00,55.9,45.1,29.75,East,90,0.0,1.6,67,0.00,,,0.00,pywws,2013-05-18 19:39:00,
2013-05-18 20:45:00,55.9,45.1,29.75,South,180,0.0,0.7,67,0.00,,,0.00,pywws,2013-05-18 19:45:00,
2013-05-18 20:50:00,55.8,45.0,29.75,South,180,0.7,1.6,67,0.00,,,0.00,pywws,2013-05-18 19:50:00,
2013-05-18 20:56:00,55.4,45.0,29.75,SE,135,0.0,0.7,68,0.00,,,0.00,pywws,2013-05-18 19:56:00,
2013-05-18 21:01:00,55.0,44.7,29.75,East,90,0.7,1.6,68,0.00,,,0.00,pywws,2013-05-18 20:01:00,
2013-05-18 21:07:00,54.7,44.7,29.75,East,90,0.7,3.1,69,0.00,,,0.00,pywws,2013-05-18 20:07:00,
2013-05-18 21:13:00,54.5,44.5,29.75,SE,135,0.0,1.6,69,0.00,,,0.00,pywws,2013-05-18 20:13:00,
2013-05-18 21:18:00,54.3,44.7,29.75,East,90,0.0,0.7,70,0.00,,,0.00,pywws,2013-05-18 20:18:00,
2013-05-18 21:24:00,54.3,45.1,29.75,SE,135,0.0,1.6,71,0.00,,,0.00,pywws,2013-05-18 20:24:00,
2013-05-18 21:29:00,54.0,44.8,29.75,SE,135,0.0,0.7,71,0.00,,,0.00,pywws,2013-05-18 20:29:00,
2013-05-18 21:35:00,53.8,44.6,29.76,SE,135,0.0,1.6,71,0.00,,,0.00,pywws,2013-05-18 20:35:00,
2013-05-18 21:41:00,53.6,44.8,29.75,SE,135,0.0,1.6,72,0.00,,,0.00,pywws,2013-05-18 20:41:00,
2013-05-18 21:46:00,53.4,44.6,29.75,SE,135,0.0,1.6,72,0.00,,,0.00,pywws,2013-05-18 20:46:00,
2013-05-18 21:52:00,53.4,44.6,29.76,East,90,0.0,0.0,72,0.00,,,0.00,pywws,2013-05-18 20:52:00,
2013-05-18 21:57:00,53.4,45.0,29.76,East,90,0.0,0.7,73,0.00,,,0.00,pywws,2013-05-18 20:57:00,
2013-05-18 22:03:00,53.2,44.8,29.76,East,90,0.0,0.7,73,0.00,,,0.00,pywws,2013-05-18 21:03:00,
2013-05-18 22:09:00,53.1,44.6,29.76,SE,135,0.0,0.7,73,0.00,,,0.00,pywws,2013-05-18 21:09:00,
2013-05-18 22:14:00,53.1,45.0,29.76,East,90,0.0,0.7,74,0.00,,,0.00,pywws,2013-05-18 21:14:00,
2013-05-18 22:20:00,52.9,44.8,29.77,South,180,0.0,0.7,74,0.00,,,0.00,pywws,2013-05-18 21:20:00,
2013-05-18 22:25:00,52.9,45.2,29.77,South,180,0.7,3.1,75,0.00,,,0.00,pywws,2013-05-18 21:25:00,
2013-05-18 22:30:00,53.1,45.3,29.77,East,90,0.7,1.6,75,0.00,,,0.00,pywws,2013-05-18 21:30:00,
2013-05-18 22:36:00,52.9,45.2,29.77,NE,45,0.7,2.2,75,0.00,,,0.00,pywws,2013-05-18 21:36:00,
2013-05-18 22:41:00,52.9,45.2,29.77,East,90,0.7,2.2,75,0.00,,,0.00,pywws,2013-05-18 21:41:00,
2013-05-18 22:47:00,52.9,45.2,29.77,NE,45,0.0,1.6,75,0.00,,,0.00,pywws,2013-05-18 21:47:00,
2013-05-18 22:52:00,52.7,45.0,29.76,North,0,0.0,1.6,75,0.00,,,0.00,pywws,2013-05-18 21:52:00,
2013-05-18 22:58:00,52.5,44.8,29.76,NE,45,0.0,0.0,75,0.00,,,0.00,pywws,2013-05-18 21:58:00,
2013-05-18 23:04:00,52.0,44.7,29.76,NW,315,0.0,0.0,76,0.00,,,0.00,pywws,2013-05-18 22:04:00,
2013-05-18 23:09:00,51.6,44.3,29.76,NE,45,0.0,1.6,76,0.00,,,0.00,pywws,2013-05-18 22:09:00,
2013-05-18 23:15:00,51.8,45.2,29.77,East,90,0.0,1.6,78,0.00,,,0.00,pywws,2013-05-18 22:15:00,
2013-05-18 23:20:00,51.8,45.2,29.76,NE,45,0.0,0.7,78,0.00,,,0.00,pywws,2013-05-18 22:20:00,
2013-05-18 23:26:00,52.0,45.3,29.77,South,180,0.0,0.7,78,0.00,,,0.00,pywws,2013-05-18 22:26:00,
2013-05-18 23:32:00,52.0,45.3,29.76,East,90,0.0,0.7,78,0.00,,,0.00,pywws,2013-05-18 22:32:00,
2013-05-18 23:37:00,51.8,45.2,29.77,SE,135,0.0,0.0,78,0.00,,,0.00,pywws,2013-05-18 22:37:00,
2013-05-18 23:43:00,51.6,45.3,29.77,South,180,0.0,0.7,79,0.00,,,0.00,pywws,2013-05-18 22:43:00,
2013-05-18 23:48:00,51.1,44.8,29.77,South,180,0.0,0.0,79,0.00,,,0.00,pywws,2013-05-18 22:48:00,
2013-05-18 23:55:00,50.5,44.6,29.77,North,0,0.0,1.6,80,0.00,,,0.00,pywws,2013-05-18 22:55:00,